Location: Carabito
(9.8355°N, 67.9249°W)
Time: 21:11:06
(UTC+00:00)

Chandra Rocket (1) - Pass Details

Date: 23 May 2024
Orbit: 292 x 10883 km, 28.5° (Epoch: 23 June)

Event Time Altitude Azimuth Distance (km) Brightness Sun altitude
Exits shadow 09:05:53 23° 212° (SSW) 1,206 3.1 -15.4°
Maximum altitude 09:06:34 24° 195° (SSW) 1,275 3.3 -15.2°
Drops below altitude 10° 09:11:43 10° 142° (SE) 3,138 5.8 -14.0°
Sets 09:17:26 0° 131° (SE) 5,539 7.3 -12.8°
